Terminal Aerodrome Forecast
Issued by NWS

Home | Current Version | Previous Version | Text Only | Print | Product List | Glossary On
Versions: 1 2 3 4 5 6 7 8 9 10 11 12 13 14 15 16 17 18 19 20 21 22 23 24 25 26 27 28 29 30 31 32 33 34 35 36 37 38 39 40 41 42 43 44 45 46 47 48 49 50
000
FTPA31 PHFO 281700 RRA
TAFITO
TAF
PHTO 281742Z 2818/2918 22008KT P6SM VCSH OVC040
      TEMPO 2818/2821 -SHRA BKN025
     FM282100 04010KT P6SM SCT025 OVC040
     FM290600 28008KT P6SM VCSH SCT025 BKN050=

USA.gov is the U.S. government's official web portal to all federal, state and local government web resources and services.